Location: Bu�n Treun
(12.1333°N, 108.3167°E)
Time: 23:04:51
(UTC+00:00)

Cosmos 2026 Rocket - Pass Details

Date: 13 July 2020
Orbit: 938 x 1002 km, 82.9° (Epoch: 14 August)

Event Time Altitude Azimuth Distance (km) Brightness Sun altitude
Rises 21:37:46 0° 353° (N) 3,593 7.2 -12.4°
Reaches altitude 10° 21:40:15 10° 351° (N) 2,646 6.5 -11.8°
Maximum altitude 21:46:15 74° 267° (W) 975 3.9 -10.5°
Drops below altitude 10° 21:52:17 10° 183° (S) 2,651 6.0 -9.2°
Sets 21:54:46 0° 181° (S) 3,600 6.7 -8.6°
